Flag for Colombia Weather past 2 weeks in Medellin, Colombia

Now
61 °F

Fog.


Feels Like: 61 °F
Forecast: 68 / 85 °F
Wind: No wind

Location: Rionegro / J. M. Cordova

Current Time: Apr 2, 2015 at 1:56:42 AM

Latest Report: Apr 2, 2015 at 1:00 AM


Visibility: 3 mi

Pressure: 30.32 "Hg

Humidity: 94%

Dew point: 59 °F

Location of MedellinLocation

Historic Weather in Medellin — Graph

°F

Medellin temperature yesterday

Maximum temperature yesterday: 70 °F (at 2:00 PM)
Minimum temperature yesterday: 57 °F (at 6:00 AM)
Average temperature yesterday: 63 °F

Past Weeks' High & Low Weather Summary

 TemperatureHumidityPressure
High73 °F (Mar 26, 3:00 PM)100% (Mar 18, 3:00 AM)30.43 "Hg (Mar 18, 3:00 AM)
Low52 °F (Mar 25, 7:00 AM)44% (Mar 22, 2:00 PM)30.19 "Hg (Mar 18, 4:00 PM)
Average62 °F85%30.32 "Hg
* Reported Mar 18 1:00 AM — Apr 2 1:00 AM, Medellin, Weather by CustomWeather, © 2015

Note: Actual official high and low records may vary slightly from our data, if they occured in-between our weather recording intervals... More about our weather records

Advertising

Medellin weather history for previous 24 hours

 ConditionsComfort  
Time TempWeatherWind HumidityBarometerVisibility
1:00 AM
Thu, Apr 2
61 °FFog.No wind94%30.32 "Hg3 mi
12:00 AM61 °FPartly cloudy.No wind94%30.33 "Hg4 mi
11:00 PM
Wed, Apr 1
61 °FCool.5 mph94%30.34 "HgN/A
10:00 PM63 °FPartly cloudy.5 mph88%30.33 "Hg4 mi
9:00 PM63 °FPartly cloudy.No wind94%30.31 "HgN/A
8:00 PM63 °FPassing clouds.5 mph88%30.28 "HgN/A
7:00 PM64 °FPassing clouds.7 mph83%30.24 "HgN/A
6:00 PM66 °FScattered clouds.5 mph78%30.22 "HgN/A
5:00 PM68 °FScattered showers. Scattered clouds.5 mph69%30.21 "HgN/A
4:00 PM70 °FScattered showers. Scattered clouds.9 mph60%30.20 "HgN/A
3:00 PM70 °FScattered clouds.5 mph57%30.22 "HgN/A
2:00 PM70 °FScattered clouds.No wind60%30.25 "HgN/A
1:00 PM66 °FPartly sunny.No wind68%30.29 "HgN/A
12:00 PM63 °FBroken clouds.2 mph77%30.32 "HgN/A
11:00 AM63 °FPartly sunny.7 mph77%30.34 "HgN/A
10:00 AM63 °FBroken clouds.5 mph83%30.34 "Hg5 mi
9:00 AM61 °FBroken clouds.2 mph88%30.33 "Hg4 mi
8:00 AM61 °FBroken clouds.2 mph88%30.33 "Hg3 mi
7:00 AM59 °FFog.No wind94%30.32 "Hg2 mi
6:00 AM57 °FFog.No wind100%30.28 "Hg2 mi
5:00 AM59 °FFog.No wind94%30.27 "Hg2 mi
4:00 AM59 °FFog.No wind94%30.26 "Hg2 mi
3:00 AM59 °FFog.No wind94%30.27 "Hg2 mi
2:00 AM59 °FFog.No wind94%30.28 "Hg2 mi
1:00 AM59 °FFog.No wind100%30.30 "Hg2 mi
Weather by CustomWeather, © 2015

See weather overviewHow to use our weather pages